Ketchikan, AK

6:06 PM AKDT on March 26, 2017 (GMT -0800)
Ketchikan International

Weather History for PAKT - January, 2014

Change the Weather History Date:

Tuesday, January 21, 2014

  Actual Average Record
Temperature  
Mean Temperature 47 °F -  
Max Temperature 52 °F 39 °F 57 °F (1981)
Min Temperature 42 °F 29 °F 7 °F (1982)
Degree Days  
Heating Degree Days 18    
Moisture  
Dew Point 39 °F    
Average Humidity 75    
Maximum Humidity 89    
Minimum Humidity 57    
Precipitation  
Precipitation 0.01 in - - ()
Sea Level Pressure  
Sea Level Pressure 30.07 in    
Wind  
Wind Speed 8 mph (SE)    
Max Wind Speed 12 mph    
Max Gust Speed 17 mph    
Visibility 10 miles    
Events      
Averages and records for this station are not official NWS values.
T = Trace of Precipitation, MM = Missing Value Source: NWS Daily Summary

Daily Weather History Graph

Daily Weather History Graph

Search for Another Location

Airport or City:

Trip Planner

Search our weather history database for the weather conditions in past years. The results will help you decide how hot, cold, wet, or windy it might be!

Date:

Astronomy

Jan. 21, 2014 Rise Set
Actual Time 7:56 AM AKST 4:00 PM AKST
Civil Twilight 7:14 AM AKST 4:42 PM AKST
Nautical Twilight 6:28 AM AKST 5:28 PM AKST
Astronomical Twilight 5:45 AM AKST 6:11 PM AKST
Moon 10:47 PM AKST (1/21) 9:28 AM AKST (1/21)
Length of Visible Light 9h 28m
Length of Day
8h 03m
Waning Gibbous, 73% of the Moon is Illuminated
Jan 21
Waning Gibbous
Jan 23
Last Quarter
Jan 30
New
Feb 6
First Quarter
Feb 14
Full

Hourly Weather History & Observations

Time (AKST) Temp. Windchill Dew Point Humidity Pressure Visibility Wind Dir Wind Speed Gust Speed Precip Events Conditions
12:53 AM 44.1 °F 40.1 °F 39.9 °F 85% 30.13 in 10.0 mi ESE 6.9 mph - N/A   Scattered Clouds
1:53 AM 44.1 °F 38.6 °F 39.0 °F 82% 30.13 in 10.0 mi SE 10.4 mph - N/A   Partly Cloudy
3:53 AM 45.0 °F 39.3 °F 37.9 °F 76% 30.10 in 10.0 mi ESE 11.5 mph - N/A   Mostly Cloudy
4:53 AM 42.1 °F 38.4 °F 37.9 °F 85% 30.10 in 10.0 mi ESE 5.8 mph - N/A   Clear
5:53 AM 42.1 °F 38.4 °F 39.0 °F 89% 30.09 in 10.0 mi SE 5.8 mph - N/A   Partly Cloudy
6:53 AM 42.1 °F 37.7 °F 37.9 °F 85% 30.08 in 10.0 mi SE 6.9 mph - N/A   Partly Cloudy
7:53 AM 43.0 °F 38.8 °F 37.9 °F 82% 30.06 in 10.0 mi SE 6.9 mph - N/A   Clear
8:53 AM 44.1 °F 39.5 °F 37.9 °F 79% 30.06 in 10.0 mi SSE 8.1 mph - N/A   Mostly Cloudy
9:53 AM 45.0 °F 40.6 °F 39.0 °F 80% 30.06 in 10.0 mi ESE 8.1 mph - N/A   Mostly Cloudy
10:53 AM 46.0 °F 40.6 °F 39.9 °F 79% 30.06 in 10.0 mi East 11.5 mph - N/A   Scattered Clouds
11:53 AM 46.9 °F - 39.9 °F 77% 30.04 in 10.0 mi ESE 6.9 mph - N/A   Overcast
12:53 PM 48.9 °F - 39.0 °F 69% 30.04 in 10.0 mi East 8.1 mph - N/A   Overcast
1:53 PM 52.0 °F - 37.0 °F 57% 30.02 in 10.0 mi South 6.9 mph - N/A   Scattered Clouds
2:53 PM 50.0 °F - 37.9 °F 63% 30.01 in 10.0 mi SSE 9.2 mph - N/A   Mostly Cloudy
3:53 PM 46.9 °F - 39.9 °F 77% 30.04 in 10.0 mi SE 9.2 mph - 0.00 in   Overcast
4:53 PM 46.9 °F - 39.0 °F 74% 30.02 in 10.0 mi SSE 6.9 mph - N/A   Scattered Clouds
5:53 PM 46.0 °F 41.9 °F 39.0 °F 76% 30.04 in 10.0 mi ESE 8.1 mph - N/A   Overcast
6:53 PM 48.9 °F - 37.9 °F 66% 30.05 in 10.0 mi SSE 11.5 mph - N/A   Overcast
7:53 PM 48.0 °F - 39.0 °F 71% 30.07 in 10.0 mi SSE 9.2 mph - 0.01 in   Overcast
8:53 PM 48.0 °F - 39.0 °F 71% 30.07 in 10.0 mi South 8.1 mph - N/A   Overcast
9:53 PM 48.0 °F - 37.9 °F 68% 30.09 in 10.0 mi SSE 10.4 mph - 0.00 in   Overcast
10:53 PM 48.0 °F - 39.0 °F 71% 30.10 in 10.0 mi South 5.8 mph - 0.00 in   Overcast
11:53 PM 48.9 °F - 39.0 °F 69% 30.13 in 10.0 mi SSE 6.9 mph 17.3 mph N/A   Overcast